Weather History for Warrenton, VA

Change the Weather History Date:

Friday, November 23, 2012

  Actual Average (KHEF) Record (KHEF)
Temperature  
Mean Temperature 46 °F -  
Max Temperature 68 °F 53 °F 69 °F (1998)
Min Temperature 25 °F 31 °F 17 °F (2000)
Degree Days  
Heating Degree Days 19    
Moisture  
Dew Point 36 °F    
Average Humidity 74    
Maximum Humidity 100    
Minimum Humidity 43    
Precipitation  
Precipitation 0.00 in - - ()
Sea Level Pressure  
Sea Level Pressure 29.93 in    
Wind  
Wind Speed 3 mph (SW)    
Max Wind Speed 23 mph    
Max Gust Speed 36 mph    
Visibility 10 miles    
Events      
Averages and records for this station are not official NWS values.
T = Trace of Precipitation, MM = Missing Value Source: NWS Daily Summary

Daily Weather History Graph

Daily Weather History Graph

Search for Another Location

Airport:

Trip Planner

Search our weather history database for the weather conditions in past years. The results will help you decide how hot, cold, wet, or windy it might be!

Date:

Astronomy

Nov. 23, 2012 Rise Set
Actual Time 7:01 AM EST 4:52 PM EST
Civil Twilight 6:33 AM EST 5:21 PM EST
Nautical Twilight 6:00 AM EST 5:53 PM EST
Astronomical Twilight 5:28 AM EST 6:25 PM EST
Moon 2:03 PM EST (11/23) 2:21 AM EST (11/23)
Length of Visible Light 10h 48m
Length of Day
9h 50m
Waxing Gibbous, 79% of the Moon is Illuminated
Nov 23
Waxing Gibbous
Nov 28
Full
Dec 6
Last Quarter
Dec 13
New
Dec 20
First Quarter

Hourly Weather History & Observations

Time (EST) Temp. Windchill Dew Point Humidity Pressure Visibility Wind Dir Wind Speed Gust Speed Precip Events Conditions
12:15 AM 29.5 °F - 29.5 °F 100% 30.14 in 10.0 mi Calm Calm - N/A   Clear
12:35 AM 28.4 °F - 28.4 °F 100% 30.13 in 10.0 mi Calm Calm - N/A   Clear
12:55 AM 29.3 °F - 29.3 °F 100% 30.13 in 10.0 mi Calm Calm - N/A   Clear
1:15 AM 28.8 °F - 28.8 °F 100% 30.13 in 10.0 mi Calm Calm - N/A   Clear
1:35 AM 28.8 °F - 28.8 °F 100% 30.13 in 10.0 mi Calm Calm - N/A   Clear
1:55 AM 28.4 °F - 28.4 °F 100% 30.12 in 10.0 mi Calm Calm - N/A   Clear
2:15 AM 27.9 °F - 27.9 °F 100% 30.12 in 10.0 mi Calm Calm - N/A   Clear
2:35 AM 27.7 °F - 27.7 °F 100% 30.11 in 10.0 mi Calm Calm - N/A   Clear
2:55 AM 27.0 °F - 27.0 °F 100% 30.10 in 10.0 mi Calm Calm - N/A   Clear
3:15 AM 27.9 °F - 27.9 °F 100% 30.11 in 10.0 mi Calm Calm - N/A   Clear
3:35 AM 29.3 °F - 29.3 °F 100% 30.09 in 10.0 mi Calm Calm - N/A   Clear
3:55 AM 27.3 °F - 27.3 °F 100% 30.09 in 10.0 mi Calm Calm - N/A   Clear
4:15 AM 27.3 °F - 27.3 °F 100% 30.08 in 10.0 mi Calm Calm - N/A   Clear
4:35 AM 28.0 °F - 28.0 °F 100% 30.08 in 10.0 mi Calm Calm - N/A   Clear
4:55 AM 25.7 °F - 25.7 °F 100% 30.08 in 10.0 mi Calm Calm - N/A   Clear
5:15 AM 26.1 °F - 26.1 °F 100% 30.08 in 10.0 mi Calm Calm - N/A   Clear
5:35 AM 25.3 °F - 25.3 °F 100% 30.07 in 10.0 mi Calm Calm - N/A   Clear
5:55 AM 27.1 °F - 27.1 °F 100% 30.05 in 10.0 mi Calm Calm - N/A   Clear
6:15 AM 26.2 °F - 26.2 °F 100% 30.05 in 10.0 mi Calm Calm - N/A   Clear
6:35 AM 25.9 °F - 25.9 °F 100% 30.05 in 10.0 mi Calm Calm - N/A   Clear
6:55 AM 26.6 °F - 26.6 °F 100% 30.05 in 10.0 mi Calm Calm - N/A   Clear
7:15 AM 25.5 °F - 25.5 °F 100% 30.05 in 10.0 mi Calm Calm - N/A   Clear
7:35 AM 27.3 °F - 27.3 °F 100% 30.04 in 10.0 mi Calm Calm - N/A   Clear
8:15 AM 31.5 °F - 31.5 °F 100% 30.03 in 10.0 mi Calm Calm - N/A   Clear
8:35 AM 33.4 °F - 33.4 °F 100% 30.02 in 10.0 mi Calm Calm - N/A   Clear
8:55 AM 37.6 °F - 36.3 °F 95% 30.00 in 10.0 mi Calm Calm - N/A   Clear
9:15 AM 41.2 °F - 37.8 °F 88% 30.01 in 10.0 mi Calm Calm - N/A   Clear
9:35 AM 45.1 °F 42.8 °F 38.7 °F 78% 30.00 in 10.0 mi WSW 4.6 mph - N/A   Clear
9:55 AM 47.3 °F - 36.9 °F 67% 29.99 in 10.0 mi SW 6.9 mph - N/A   Clear
10:15 AM 49.3 °F - 37.0 °F 63% 29.99 in 10.0 mi SW 8.1 mph - N/A   Clear
10:35 AM 50.9 °F - 37.8 °F 61% 29.96 in 10.0 mi Calm Calm - N/A   Clear
10:55 AM 53.1 °F - 38.7 °F 58% 29.95 in 10.0 mi South 5.8 mph - N/A   Clear
11:15 AM 54.7 °F - 39.4 °F 56% 29.94 in 10.0 mi South 4.6 mph - N/A   Clear
11:35 AM 54.9 °F - 38.1 °F 53% 29.92 in 10.0 mi SW 5.8 mph - N/A   Clear
11:55 AM 57.6 °F - 39.6 °F 51% 29.92 in 10.0 mi WSW 4.6 mph - N/A   Clear
12:15 PM 59.2 °F - 40.1 °F 49% 29.89 in 10.0 mi Calm Calm - N/A   Clear
12:35 PM 60.8 °F - 40.8 °F 48% 29.88 in 10.0 mi South 4.6 mph - N/A   Clear
12:55 PM 63.5 °F - 42.3 °F 46% 29.86 in 10.0 mi SSW 4.6 mph - N/A   Clear
1:15 PM 64.8 °F - 43.3 °F 46% 29.85 in 10.0 mi SSW 6.9 mph - N/A   Clear
1:35 PM 63.9 °F - 43.2 °F 47% 29.83 in 10.0 mi South 4.6 mph - N/A   Clear
1:55 PM 65.3 °F - 44.2 °F 46% 29.82 in 10.0 mi SW 8.1 mph - N/A   Clear
2:15 PM 66.0 °F - 44.1 °F 45% 29.80 in 10.0 mi South 5.8 mph - N/A   Clear
2:35 PM 65.7 °F - 43.9 °F 45% 29.79 in 10.0 mi SSW 5.8 mph - N/A   Clear
2:55 PM 67.1 °F - 44.1 °F 43% 29.79 in 10.0 mi SSW 9.2 mph - N/A   Clear
3:15 PM 65.7 °F - 45.1 °F 47% 29.78 in 10.0 mi SSW 5.8 mph - N/A   Clear
3:35 PM 65.3 °F - 44.6 °F 47% 29.78 in 10.0 mi South 5.8 mph - N/A   Clear
3:55 PM 64.4 °F - 44.6 °F 49% 29.78 in 10.0 mi South 6.9 mph - N/A   Scattered Clouds
4:15 PM 63.0 °F - 43.7 °F 49% 29.77 in 10.0 mi South 3.5 mph - N/A   Scattered Clouds
4:35 PM 62.6 °F - 44.1 °F 51% 29.77 in 10.0 mi South 3.5 mph - N/A   Mostly Cloudy
4:55 PM 58.6 °F - 44.2 °F 59% 29.77 in 10.0 mi South 3.5 mph - N/A   Scattered Clouds
5:15 PM 56.3 °F - 43.9 °F 63% 29.76 in 10.0 mi Calm Calm - N/A   Mostly Cloudy
5:35 PM 53.8 °F - 44.6 °F 71% 29.77 in 10.0 mi Calm Calm - N/A   Overcast
5:55 PM 55.0 °F - 46.0 °F 72% 29.77 in 10.0 mi Calm Calm - N/A   Mostly Cloudy
6:15 PM 53.4 °F - 46.2 °F 77% 29.77 in 10.0 mi Calm Calm - N/A   Mostly Cloudy
6:35 PM 52.2 °F - 46.4 °F 81% 29.78 in 10.0 mi NNW 10.4 mph - N/A   Mostly Cloudy
6:55 PM 57.0 °F - 45.3 °F 65% 29.78 in 10.0 mi North 4.6 mph - N/A   Mostly Cloudy
7:35 PM 50.4 °F - 43.9 °F 78% 29.78 in 10.0 mi Calm Calm - N/A   Scattered Clouds
7:55 PM 48.0 °F - 44.2 °F 87% 29.79 in 10.0 mi Calm Calm - N/A   Mostly Cloudy
8:15 PM 49.6 °F - 45.5 °F 86% 29.80 in 10.0 mi Calm Calm - N/A   Overcast
8:35 PM 52.7 °F - 46.6 °F 80% 29.81 in 10.0 mi WNW 6.9 mph - N/A   Overcast
8:55 PM 57.4 °F - 42.1 °F 57% 29.81 in 10.0 mi WNW 16.1 mph 20.7 mph N/A   Mostly Cloudy
9:15 PM 56.1 °F - 38.3 °F 51% 29.82 in 10.0 mi WNW 18.4 mph 28.8 mph N/A   Scattered Clouds
9:35 PM 55.4 °F - 38.1 °F 52% 29.82 in 10.0 mi WNW 17.3 mph 26.5 mph N/A   Clear
9:55 PM 54.9 °F - 35.8 °F 49% 29.81 in 10.0 mi WNW 23.0 mph 35.7 mph N/A   Clear
10:15 PM 54.1 °F - 35.1 °F 49% 29.82 in 10.0 mi WNW 23.0 mph 29.9 mph N/A   Clear
10:35 PM 54.0 °F - 35.4 °F 50% 29.82 in 10.0 mi WNW 16.1 mph 26.5 mph N/A   Clear
10:55 PM 52.2 °F - 35.6 °F 53% 29.82 in 10.0 mi WNW 8.1 mph - N/A   Clear
11:15 PM 51.1 °F - 35.6 °F 55% 29.82 in 10.0 mi West 11.5 mph - N/A   Clear
11:35 PM 50.9 °F - 36.3 °F 57% 29.84 in 10.0 mi WNW 10.4 mph 16.1 mph N/A   Clear
11:55 PM 50.4 °F - 35.4 °F 57% 29.83 in 10.0 mi WNW 18.4 mph 23.0 mph N/A   Clear